Hourly Weather Kizema

Today, 30 July, Friday

Time Temperature Precipitation Wind Pressure Humidity
00:00 +15°C° 1.8 mm 0 mps 739 mmHg 99%
01:00 +15°C° 0.2 mm 0 mps 739 mmHg 99%
02:00 +15°C° 0.2 mm 0 mps 739 mmHg 99%
03:00 +15°C° 0.2 mm 0 mps 739 mmHg 99%
04:00 +15°C° 0 mm 0 mps 739 mmHg 98%
05:00 +16°C° 0 mm 1 mps 739 mmHg 98%
06:00 +16°C° 0 mm 1 mps 739 mmHg 97%
07:00 +18°C° 0 mm 1 mps 740 mmHg 96%
08:00 +18°C° 0 mm 1 mps 740 mmHg 94%
09:00 +18°C° 0 mm 1 mps 740 mmHg 93%
10:00 +20°C° 0.1 mm 1 mps 740 mmHg 86%
11:00 +21°C° 0.1 mm 1 mps 740 mmHg 80%
12:00 +21°C° 0.1 mm 2 mps 741 mmHg 73%
13:00 +23°C° 0.3 mm 2 mps 741 mmHg 68%
14:00 +24°C° 0.3 mm 2 mps 740 mmHg 64%
15:00 +25°C° 0.3 mm 2 mps 740 mmHg 59%
16:00 +25°C° 0 mm 1 mps 740 mmHg 59%
17:00 +25°C° 0 mm 1 mps 740 mmHg 59%
18:00 +26°C° 0 mm 1 mps 740 mmHg 58%
19:00 +23°C° 0.1 mm 1 mps 740 mmHg 68%
20:00 +21°C° 0.1 mm 1 mps 740 mmHg 77%
21:00 +19°C° 0.1 mm 1 mps 740 mmHg 87%
22:00 +18°C° 0 mm 1 mps 740 mmHg 87%
23:00 +17°C° 0 mm 2 mps 740 mmHg 88%

Tomorrow, 31 July, Saturday

Time Temperature Precipitation Wind Pressure Humidity
00:00 +16°C° 0 mm 2 mps 740 mmHg 88%
01:00 +16°C° 0.5 mm 2 mps 740 mmHg 91%
02:00 +16°C° 0.5 mm 2 mps 739 mmHg 94%
03:00 +16°C° 0.5 mm 2 mps 739 mmHg 97%
04:00 +16°C° 2.5 mm 1 mps 739 mmHg 98%
05:00 +16°C° 2.5 mm 1 mps 739 mmHg 98%
06:00 +16°C° 2.5 mm 1 mps 738 mmHg 99%
07:00 +16°C° 0.4 mm 1 mps 738 mmHg 99%
08:00 +15°C° 0.4 mm 0 mps 738 mmHg 98%
09:00 +15°C° 0.4 mm 0 mps 738 mmHg 98%
10:00 +15°C° 2.3 mm 0 mps 738 mmHg 98%
11:00 +16°C° 2.3 mm 1 mps 738 mmHg 98%
12:00 +16°C° 2.3 mm 1 mps 738 mmHg 98%
13:00 +19°C° 0.8 mm 1 mps 738 mmHg 90%
14:00 +19°C° 0.8 mm 2 mps 738 mmHg 83%
15:00 +20°C° 0.8 mm 2 mps 738 mmHg 75%
16:00 +19°C° 0.9 mm 3 mps 738 mmHg 80%
17:00 +19°C° 0.9 mm 3 mps 738 mmHg 86%
18:00 +18°C° 0.9 mm 4 mps 738 mmHg 91%
19:00 +16°C° 0.7 mm 3 mps 738 mmHg 93%
20:00 +14°C° 0.7 mm 3 mps 739 mmHg 96%
21:00 +13°C° 0.7 mm 2 mps 739 mmHg 98%
22:00 +13°C° 0.2 mm 2 mps 739 mmHg 98%
23:00 +13°C° 0.2 mm 2 mps 739 mmHg 98%

Day after tomorrow, 1 August, Sunday

Time Temperature Precipitation Wind Pressure Humidity
00:00 +13°C° 0.2 mm 2 mps 739 mmHg 98%
01:00 +14°C° 0.3 mm 2 mps 739 mmHg 98%
02:00 +14°C° 0.3 mm 2 mps 740 mmHg 98%
03:00 +14°C° 0.3 mm 2 mps 740 mmHg 98%
04:00 +14°C° 0 mm 2 mps 741 mmHg 97%
05:00 +14°C° 0 mm 2 mps 741 mmHg 96%
06:00 +14°C° 0 mm 2 mps 742 mmHg 95%
07:00 +15°C° 0 mm 2 mps 742 mmHg 91%
08:00 +16°C° 0 mm 3 mps 743 mmHg 87%
09:00 +17°C° 0 mm 3 mps 743 mmHg 83%
10:00 +19°C° 0 mm 3 mps 743 mmHg 73%
11:00 +20°C° 0 mm 3 mps 744 mmHg 64%
12:00 +22°C° 0 mm 3 mps 744 mmHg 54%
13:00 +22°C° 0 mm 3 mps 744 mmHg 56%
14:00 +22°C° 0 mm 3 mps 744 mmHg 58%
15:00 +22°C° 0 mm 3 mps 744 mmHg 60%
16:00 +22°C° 0 mm 3 mps 744 mmHg 61%
17:00 +23°C° 0 mm 2 mps 744 mmHg 63%
18:00 +23°C° 0 mm 2 mps 743 mmHg 64%
19:00 +20°C° 0.4 mm 2 mps 743 mmHg 72%
20:00 +19°C° 0.4 mm 3 mps 743 mmHg 79%
21:00 +17°C° 0.4 mm 3 mps 743 mmHg 87%
22:00 +17°C° 1.4 mm 3 mps 743 mmHg 91%
23:00 +16°C° 1.4 mm 2 mps 743 mmHg 95%

2 August, Monday

Time Temperature Precipitation Wind Pressure Humidity
00:00 +16°C° 1.4 mm 2 mps 744 mmHg 99%
01:00 +16°C° 0 mm 2 mps 744 mmHg 98%
02:00 +16°C° 0 mm 2 mps 744 mmHg 97%
03:00 +16°C° 0 mm 2 mps 744 mmHg 97%
04:00 +16°C° 0 mm 2 mps 744 mmHg 97%
05:00 +16°C° 0 mm 2 mps 744 mmHg 97%
06:00 +16°C° 0 mm 2 mps 744 mmHg 97%
07:00 +17°C° 0 mm 2 mps 744 mmHg 91%
08:00 +19°C° 0 mm 2 mps 744 mmHg 85%
09:00 +20°C° 0 mm 3 mps 744 mmHg 78%
10:00 +22°C° 0 mm 3 mps 744 mmHg 70%
11:00 +24°C° 0 mm 3 mps 744 mmHg 61%
12:00 +26°C° 0 mm 3 mps 744 mmHg 52%
13:00 +26°C° 0 mm 3 mps 744 mmHg 50%
14:00 +26°C° 0 mm 3 mps 744 mmHg 48%
15:00 +27°C° 0 mm 3 mps 744 mmHg 47%
16:00 +26°C° 0 mm 3 mps 744 mmHg 50%
17:00 +26°C° 0 mm 3 mps 744 mmHg 53%
18:00 +25°C° 0 mm 2 mps 744 mmHg 56%
19:00 +23°C° 0 mm 2 mps 744 mmHg 64%
20:00 +21°C° 0 mm 2 mps 744 mmHg 72%
21:00 +19°C° 0 mm 2 mps 744 mmHg 80%
22:00 +18°C° 0 mm 2 mps 744 mmHg 81%
23:00 +18°C° 0 mm 2 mps 744 mmHg 82%

3 August, Tuesday

Time Temperature Precipitation Wind Pressure Humidity
00:00 +17°C° 0 mm 2 mps 744 mmHg 83%
01:00 +17°C° 0 mm 2 mps 744 mmHg 85%
02:00 +17°C° 0 mm 2 mps 744 mmHg 88%
03:00 +16°C° 0 mm 2 mps 744 mmHg 91%
04:00 +17°C° 0 mm 2 mps 743 mmHg 88%
05:00 +18°C° 0 mm 2 mps 743 mmHg 85%
06:00 +19°C° 0 mm 3 mps 743 mmHg 82%
07:00 +19°C° 0.2 mm 3 mps 742 mmHg 81%
08:00 +20°C° 0.2 mm 3 mps 742 mmHg 81%
09:00 +20°C° 0.2 mm 3 mps 742 mmHg 81%
10:00 +22°C° 0.3 mm 4 mps 741 mmHg 75%
11:00 +25°C° 0.3 mm 4 mps 741 mmHg 70%
12:00 +27°C° 0.3 mm 5 mps 741 mmHg 64%
13:00 +27°C° 0.3 mm 5 mps 741 mmHg 66%
14:00 +26°C° 0.3 mm 4 mps 741 mmHg 69%
15:00 +26°C° 0.3 mm 4 mps 741 mmHg 71%
16:00 +25°C° 0.1 mm 4 mps 741 mmHg 74%
17:00 +22°C° 0.1 mm 4 mps 741 mmHg 78%
18:00 +21°C° 0.1 mm 4 mps 742 mmHg 82%
19:00 +20°C° 0 mm 3 mps 742 mmHg 85%
20:00 +18°C° 0 mm 3 mps 743 mmHg 88%
21:00 +17°C° 0 mm 3 mps 744 mmHg 90%
22:00 +16°C° 0 mm 3 mps 744 mmHg 93%
23:00 +15°C° 0 mm 2 mps 745 mmHg 95%

4 August, Wednesday

Time Temperature Precipitation Wind Pressure Humidity
00:00 +14°C° 0 mm 1 mps 745 mmHg 97%
01:00 +14°C° 0 mm 1 mps 746 mmHg 97%
02:00 +14°C° 0 mm 1 mps 746 mmHg 98%
03:00 +14°C° 0 mm 2 mps 747 mmHg 98%
04:00 +14°C° 0 mm 2 mps 747 mmHg 95%
05:00 +15°C° 0 mm 2 mps 747 mmHg 92%
06:00 +15°C° 0 mm 2 mps 748 mmHg 89%
07:00 +17°C° 0 mm 2 mps 748 mmHg 81%
08:00 +18°C° 0 mm 3 mps 749 mmHg 73%
09:00 +19°C° 0 mm 3 mps 749 mmHg 65%
10:00 +19°C° 0 mm 3 mps 749 mmHg 61%
11:00 +20°C° 0 mm 4 mps 750 mmHg 57%
12:00 +20°C° 0 mm 4 mps 750 mmHg 53%
13:00 +20°C° 0 mm 4 mps 751 mmHg 50%
14:00 +20°C° 0 mm 4 mps 751 mmHg 47%
15:00 +20°C° 0 mm 4 mps 752 mmHg 44%
16:00 +19°C° 0 mm 4 mps 752 mmHg 48%
17:00 +18°C° 0 mm 3 mps 753 mmHg 52%
18:00 +17°C° 0 mm 3 mps 753 mmHg 56%
19:00 +14°C° 0 mm 3 mps 754 mmHg 63%
20:00 +13°C° 0 mm 2 mps 754 mmHg 70%
21:00 +12°C° 0 mm 1 mps 755 mmHg 76%
22:00 +11°C° 0 mm 1 mps 755 mmHg 79%
23:00 +10°C° 0 mm 1 mps 756 mmHg 82%
Show more